Find Starlink 5911

NORAD ID: 55950 Int'l Des: 2023-037 Owner: SPXS Country: US Constellation: starlink operational
LEOCIRCULAR

Live Position

Loading 3D Globe...

About Starlink 5911

Description loading...

Upcoming Passes

Passes for default location (London). Set your location on the main map for personalized predictions.

Altitude History

Loading altitude history...

Two-Line Element Set

1 55950U 23037AN 26106.89405959 -.00001155 00000-0 -88999-4 0 9994
2 55950 69.9994 168.2180 0003574 268.6529 91.4221 14.98335223170192
Epoch: Apr 16, 2026 • Age: 17 hours

Current Status

Altitude 593.4 km
Velocity 7.56 km/s
Sub-Earth Point -63.80°S, 31°W
Launch Date Mar 17, 2023
Age 3 years
Type internet

Technical Details

Classification Payload
Mass 305.00 kg
Dry Mass 290.00 kg
Total Mass 305.00 kg
Length 0.20 m
Diameter 2.80 m
Span 9.00 m
Shape Box + pan
Manufacturer SPXS
Bus Type Starlink
Phase Status In Orbit
Owner/State SPXS/US

Most Searched